Wind_Speed
12 12 13 13 13 14 15 16 17 17 18 19 19 17 15 15 15 16 16 17 19 21 21 22 24 25 27 28 28 27 28 29 29 31 31 30 31 32 33 34 33 35 35 35
13 14 13 13 13 14 16 17 17 18 19 20 20 18 17 16 16 16 16 17 19 21 21 22 24 25 27 28 28 28 29 30 30 30 31 31 32 34 36 35 35 36 36 36
15 15 14 14 15 16 16 17 17 18 19 20 20 19 18 17 18 17 16 16 18 21 22 22 23 24 26 27 28 28 28 29 29 29 30 31 33 33 35 35 36 36 36 36
16 16 16 17 17 17 18 18 19 20 21 21 22 21 19 19 19 18 17 17 17 20 22 24 24 26 26 28 29 28 29 28 27 29 30 30 32 33 33 33 34 34 34 34
19 18 19 19 19 19 19 20 20 21 22 23 22 23 21 21 20 20 19 19 19 20 22 24 26 26 28 29 29 29 29 30 29 28 30 30 31 32 33 33 34 34 34 36
21 21 21 21 22 21 21 21 22 23 24 24 23 24 23 21 21 21 21 21 21 22 23 25 25 26 27 29 30 30 31 31 31 32 32 31 31 32 34 34 34 36 37 37
24 24 23 23 24 24 23 23 24 25 26 26 25 26 25 23 23 23 23 23 23 24 25 26 27 27 28 30 32 33 33 34 34 34 34 33 34 34 36 36 36 36 36 36
26 25 25 25 25 25 25 26 26 27 28 27 27 28 27 27 26 26 26 26 26 26 27 28 29 29 30 31 33 34 34 34 34 34 34 34 35 35 36 36 36 37 37 37
28 27 26 26 27 27 26 27 27 29 29 29 30 30 29 28 28 28 28 28 28 29 29 29 30 31 31 32 33 34 34 34 35 35 35 35 35 35 36 36 37 39 40 39
29 30 28 27 28 28 28 28 28 29 30 30 30 30 30 29 29 29 29 30 30 30 31 31 30 31 32 33 35 35 35 35 36 36 36 35 35 36 36 37 38 39 39 39
31 32 30 29 30 30 30 30 30 31 31 31 32 31 31 31 31 31 30 31 31 32 32 32 32 33 34 34 35 36 35 36 36 37 36 36 36 37 37 38 38 40 40 41
33 33 33 32 32 32 32 32 32 33 34 34 35 34 33 33 33 33 33 34 34 34 34 35 35 35 35 35 36 36 36 36 37 37 37 37 37 37 38 39 40 41 41 42
35 35 35 34 33 33 34 34 35 36 37 37 37 36 35 35 35 36 36 36 37 37 37 37 37 36 36 37 37 38 37 37 38 39 39 40 41 40 40 40 41 42 42 43
37 37 36 36 36 35 35 35 37 38 39 39 38 37 37 38 38 38 38 38 38 38 38 38 38 38 38 38 39 39 39 39 39 40 40 41 42 43 43 43 43 43 44 44
39 40 39 38 38 39 39 38 38 40 40 41 39 39 39 39 40 40 40 40 40 40 40 39 39 39 40 40 40 41 41 40 41 41 42 42 42 43 43 44 44 44 44 45
42 42 41 41 40 42 43 42 41 41 41 42 42 41 40 41 41 41 41 41 41 41 41 42 42 42 42 42 42 43 43 43 43 43 44 44 44 44 45 44 45 45 44 45
43 44 44 43 42 44 45 42 43 43 42 43 43 42 42 43 42 42 42 42 43 43 44 44 44 44 45 45 45 45 45 46 45 45 45 46 46 46 46 46 46 45 45 46
45 45 45 46 45 46 44 44 44 44 44 44 44 43 43 43 43 44 44 44 44 45 46 46 45 46 46 47 47 47 47 47 47 47 47 47 47 47 47 48 48 47 47 47
45 45 45 46 47 47 45 45 45 45 45 44 44 45 44 43 44 44 44 44 45 45 46 46 46 47 47 47 47 48 48 48 48 48 48 48 48 49 49 49 50 50 50 50
45 45 46 46 47 48 46 45 44 46 47 45 46 46 46 45 45 44 45 45 46 46 46 46 46 47 47 47 47 48 48 48 48 49 49 49 50 50 51 51 51 52 52 52
45 45 45 45 46 48 46 45 45 46 47 46 46 46 47 47 46 46 45 46 46 47 47 47 47 47 47 47 48 48 48 48 49 50 50 50 50 51 51 52 53 54 54 54
44 45 45 44 45 45 44 44 45 46 47 46 46 47 47 47 47 46 46 46 46 47 47 47 48 48 47 48 48 48 47 48 49 49 50 50 51 51 52 53 54 55 56 56
44 44 45 45 44 43 43 44 45 45 46 46 47 47 48 48 48 48 47 46 46 47 47 47 48 48 48 48 48 48 48 49 49 50 51 51 52 52 53 54 55 56 56 57
42 42 43 44 43 43 44 44 45 45 46 46 47 47 48 49 49 49 48 47 47 47 48 48 49 49 49 48 48 49 49 49 50 50 50 51 52 53 54 55 56 57 57 57
41 42 43 44 44 45 45 45 45 45 46 46 47 47 48 49 49 49 48 47 47 48 48 48 49 49 48 48 48 48 48 49 49 49 50 50 51 53 53 54 54 55 55 55
40 41 42 43 43 44 43 44 44 44 45 45 46 46 46 47 48 48 47 46 47 48 48 48 48 47 47 46 46 46 47 47 48 48 49 50 50 51 52 52 51 52 52 52
Wind_Direction
279 279 281 284 285 280 278 278 274 274 273 268 264 268 265 262 260 256 258 253 246 241 239 238 234 235 238 237 239 238 241 241 243 245 246 245 243 242 241 244 247 248 248 248
279 280 284 284 283 281 278 277 276 277 274 271 266 270 266 263 262 260 260 256 247 242 241 243 240 241 242 241 241 241 241 242 246 247 248 248 246 245 244 246 248 248 248 248
281 282 280 280 280 279 280 279 277 276 273 272 272 273 269 270 267 265 266 261 251 245 245 245 244 246 245 243 243 244 244 243 246 248 248 247 247 248 247 248 248 247 248 247
280 280 278 277 278 280 279 279 278 276 273 274 274 274 273 275 273 271 269 264 258 252 250 250 251 251 250 249 247 247 246 246 250 249 249 248 246 249 248 248 249 249 248 246
280 280 279 278 278 278 279 277 277 277 275 273 275 277 277 279 276 275 274 268 262 257 254 253 255 252 252 252 250 250 249 250 253 254 254 251 248 248 246 249 251 249 248 248
281 280 279 278 278 276 276 274 273 274 274 273 274 276 276 279 280 276 272 271 267 263 260 258 258 256 257 255 254 254 254 255 257 257 256 254 252 250 248 250 252 251 250 251
281 279 279 279 278 275 275 273 272 273 273 274 273 273 274 276 278 277 275 273 271 268 265 262 261 260 259 258 257 257 257 257 258 258 258 257 256 254 253 254 255 255 254 253
281 279 279 277 275 274 274 273 273 275 275 274 272 272 274 275 275 276 275 275 273 270 267 265 262 262 261 259 259 259 260 261 259 258 258 257 255 254 254 255 255 255 255 255
280 277 276 276 274 272 271 271 273 273 274 274 273 273 273 275 275 276 276 274 272 271 269 268 266 263 261 260 260 261 262 261 259 258 257 257 255 255 254 254 254 254 255 256
278 276 274 272 270 269 270 271 272 272 274 275 275 274 274 276 277 277 276 276 273 270 269 268 266 263 262 261 260 261 262 261 260 259 257 256 256 257 257 257 257 257 258 258
276 275 274 271 269 269 268 268 269 271 272 272 274 274 274 276 276 276 276 274 273 271 269 268 267 266 264 263 262 261 261 260 258 258 257 257 256 258 260 259 259 258 258 259
275 274 273 271 270 269 268 267 267 268 269 271 272 274 275 275 275 275 274 274 272 271 269 268 268 268 267 265 264 263 261 259 258 258 258 258 257 258 259 260 259 258 258 259
274 273 273 272 270 269 268 267 268 268 269 269 271 274 274 274 274 273 272 272 272 271 271 271 270 269 269 267 265 264 263 261 261 260 260 259 260 260 261 261 260 259 259 260
271 271 271 272 272 271 270 269 269 269 270 270 271 273 273 272 272 272 272 272 272 271 270 270 270 269 269 269 267 265 263 261 261 262 261 261 262 262 263 264 264 263 262 262
270 271 270 270 270 269 269 269 269 269 270 271 272 272 272 271 271 271 272 273 272 271 269 269 269 268 268 269 268 265 264 263 261 262 262 263 263 263 264 265 265 265 264 264
270 270 270 269 270 269 268 269 270 269 270 271 271 271 270 270 272 273 272 272 271 270 269 269 270 270 269 269 269 267 266 265 263 262 262 263 263 263 264 264 265 265 265 265
270 271 271 271 270 269 269 271 271 271 271 272 272 272 270 270 271 272 271 271 270 270 269 269 269 269 270 269 269 268 267 266 265 264 264 263 263 263 264 264 265 265 266 267
270 271 271 271 271 270 273 272 272 272 272 272 272 272 271 270 270 271 271 271 270 270 270 269 269 268 269 269 269 269 268 267 266 265 265 265 265 264 264 264 264 265 266 266
270 270 271 272 272 272 271 272 274 274 272 272 272 272 271 271 271 271 271 271 271 270 270 271 270 269 269 269 269 269 267 267 266 266 265 265 265 264 264 264 265 265 265 267
269 270 271 272 273 273 274 274 274 274 273 272 272 271 271 271 271 271 271 270 271 271 272 272 272 271 270 269 268 268 267 267 266 266 266 266 265 265 264 264 264 265 265 267
269 270 270 272 273 274 274 275 275 274 275 273 272 270 270 271 272 272 272 271 271 272 273 273 273 272 272 271 270 269 268 268 267 266 266 266 266 266 266 265 265 266 266 267
269 270 270 271 271 273 274 274 273 274 273 273 272 271 270 271 272 272 272 272 272 273 273 272 272 272 272 271 271 270 269 268 268 267 267 267 267 267 267 267 266 267 268 268
268 269 271 271 272 273 273 272 272 271 271 272 272 271 271 271 272 272 272 273 273 273 272 272 271 271 271 271 270 269 268 268 267 268 267 267 268 268 268 268 268 269 269 269
268 269 270 271 272 272 271 271 270 270 271 272 272 272 271 272 273 273 273 273 273 273 272 273 273 272 272 271 270 269 268 268 267 267 268 269 269 269 269 269 269 269 269 270
268 269 269 270 272 272 272 272 272 271 271 271 271 272 272 272 272 273 274 274 274 274 273 273 272 272 271 270 269 268 268 268 268 269 269 270 270 270 270 270 270 270 270 270
270 270 271 272 273 273 272 272 272 271 271 272 272 273 272 272 272 272 273 274 274 274 274 273 272 272 271 270 269 268 268 269 270 271 271 272 272 272 272 272 272 271 270 270
Height
5717 5718 5717 5716 5716 5716 5715 5715 5715 5715 5715 5715 5715 5717 5717 5717 5718 5719 5720 5721 5722 5723 5725 5727 5729 5732 5734 5736 5738 5740 5742 5744 5746 5747 5749 5751 5752 5754 5757 5759 5760 5763 5765 5768
5715 5715 5714 5713 5713 5712 5711 5711 5712 5712 5711 5711 5712 5713 5714 5714 5715 5716 5717 5717 5718 5720 5722 5724 5726 5728 5730 5732 5734 5735 5737 5739 5741 5742 5743 5744 5746 5748 5750 5751 5753 5755 5757 5760
5711 5712 5710 5710 5710 5709 5709 5709 5708 5708 5708 5708 5709 5710 5711 5711 5712 5713 5713 5713 5714 5716 5718 5720 5722 5724 5726 5728 5729 5731 5732 5734 5735 5735 5736 5737 5740 5741 5744 5745 5746 5747 5749 5752
5708 5707 5707 5706 5706 5705 5706 5706 5705 5705 5705 5705 5705 5705 5708 5708 5708 5709 5710 5710 5711 5712 5714 5716 5718 5720 5721 5723 5724 5726 5726 5728 5728 5729 5730 5730 5733 5734 5736 5737 5739 5740 5741 5744
5703 5703 5702 5702 5702 5701 5701 5701 5701 5701 5700 5701 5702 5701 5704 5704 5704 5705 5706 5706 5707 5709 5710 5712 5713 5715 5716 5717 5719 5720 5720 5721 5722 5723 5724 5724 5725 5727 5729 5731 5731 5733 5735 5737
5699 5698 5697 5697 5697 5697 5696 5697 5696 5696 5695 5696 5698 5697 5699 5700 5700 5701 5701 5702 5703 5704 5705 5706 5708 5709 5710 5711 5712 5713 5714 5715 5715 5716 5716 5717 5718 5720 5722 5723 5724 5725 5727 5730
5693 5693 5692 5692 5691 5691 5691 5691 5691 5690 5689 5691 5692 5691 5693 5695 5695 5695 5696 5696 5697 5698 5699 5700 5702 5703 5704 5705 5705 5706 5707 5707 5707 5708 5709 5710 5710 5712 5714 5715 5717 5718 5720 5722
5686 5687 5686 5685 5685 5685 5685 5686 5686 5685 5684 5685 5686 5686 5688 5689 5689 5690 5690 5690 5691 5691 5692 5694 5695 5696 5697 5697 5698 5698 5699 5699 5699 5700 5700 5702 5703 5704 5706 5708 5709 5710 5712 5714
5679 5680 5680 5679 5679 5679 5678 5678 5679 5678 5677 5678 5679 5680 5682 5682 5682 5683 5683 5684 5684 5684 5685 5686 5687 5688 5689 5689 5689 5690 5690 5690 5691 5691 5692 5693 5695 5696 5698 5699 5700 5702 5704 5706
5671 5671 5673 5672 5672 5672 5673 5672 5672 5671 5670 5671 5672 5673 5675 5675 5675 5676 5676 5676 5676 5677 5677 5678 5679 5679 5680 5681 5681 5681 5681 5681 5682 5682 5683 5685 5686 5688 5689 5690 5692 5693 5695 5697
5663 5663 5664 5665 5665 5665 5666 5666 5664 5664 5663 5664 5664 5668 5669 5668 5668 5668 5668 5668 5668 5669 5669 5669 5670 5670 5671 5672 5672 5672 5673 5673 5673 5674 5674 5676 5677 5678 5680 5681 5682 5684 5685 5687
5655 5654 5654 5656 5657 5656 5656 5657 5657 5657 5656 5656 5656 5661 5660 5660 5659 5659 5659 5659 5659 5660 5660 5660 5660 5661 5661 5662 5662 5662 5663 5663 5664 5664 5665 5666 5667 5669 5670 5671 5672 5673 5674 5676
5646 5645 5645 5646 5649 5648 5647 5648 5648 5647 5647 5647 5648 5652 5651 5650 5649 5649 5650 5650 5650 5650 5650 5650 5650 5650 5651 5651 5651 5652 5652 5653 5654 5654 5655 5656 5657 5658 5659 5660 5661 5662 5663 5665
5636 5636 5637 5638 5637 5636 5637 5638 5638 5637 5637 5637 5639 5641 5641 5639 5639 5639 5639 5639 5639 5639 5639 5639 5639 5640 5640 5640 5640 5641 5642 5642 5643 5644 5644 5645 5646 5647 5648 5649 5650 5651 5652 5653
5625 5625 5626 5626 5626 5626 5626 5627 5627 5626 5626 5627 5629 5629 5629 5628 5628 5628 5628 5628 5628 5628 5628 5628 5628 5628 5628 5628 5628 5629 5630 5630 5631 5632 5633 5633 5634 5635 5636 5637 5638 5639 5640 5641
5614 5614 5614 5615 5615 5614 5614 5616 5616 5615 5615 5615 5616 5617 5618 5616 5616 5616 5616 5616 5616 5616 5616 5616 5616 5616 5616 5616 5616 5616 5617 5618 5618 5619 5620 5621 5622 5622 5623 5624 5625 5626 5627 5628
5602 5602 5601 5602 5603 5601 5602 5606 5604 5604 5604 5604 5603 5606 5605 5604 5604 5604 5603 5603 5603 5604 5604 5603 5603 5603 5603 5603 5603 5603 5604 5604 5605 5606 5607 5608 5609 5609 5610 5611 5612 5613 5614 5614
5590 5589 5588 5588 5589 5588 5594 5592 5592 5591 5592 5591 5591 5591 5591 5591 5591 5591 5591 5591 5590 5590 5590 5590 5590 5590 5590 5590 5589 5590 5590 5591 5591 5592 5593 5594 5595 5596 5596 5597 5598 5599 5600 5601
5578 5577 5575 5575 5574 5575 5580 5579 5578 5578 5579 5579 5578 5577 5577 5577 5578 5578 5578 5577 5577 5577 5576 5576 5576 5576 5576 5576 5576 5575 5576 5577 5577 5578 5579 5580 5580 5581 5582 5583 5584 5585 5586 5587
5565 5564 5564 5562 5561 5562 5567 5566 5564 5564 5564 5566 5564 5564 5564 5564 5564 5566 5565 5564 5563 5563 5563 5563 5562 5562 5562 5562 5562 5561 5562 5562 5563 5564 5564 5565 5566 5567 5568 5569 5570 5571 5571 5572
5552 5551 5551 5550 5548 5549 5553 5552 5551 5552 5552 5551 5550 5550 5550 5550 5550 5551 5550 5550 5550 5549 5549 5549 5548 5548 5548 5548 5547 5547 5548 5548 5549 5549 5550 5550 5551 5552 5552 5553 5554 5555 5556 5556
5539 5539 5539 5538 5537 5540 5539 5538 5538 5537 5536 5536 5536 5536 5536 5536 5536 5536 5536 5536 5536 5535 5535 5534 5534 5534 5534 5533 5533 5533 5534 5534 5534 5534 5535 5535 5536 5536 5537 5538 5538 5539 5539 5540
5526 5527 5525 5526 5527 5526 5525 5524 5523 5522 5522 5522 5522 5522 5522 5522 5523 5523 5523 5522 5522 5521 5521 5520 5520 5520 5519 5519 5518 5518 5519 5519 5519 5520 5520 5520 5521 5521 5521 5521 5522 5522 5522 5522
5513 5513 5512 5512 5512 5512 5511 5510 5510 5509 5509 5508 5508 5508 5508 5508 5508 5508 5508 5508 5507 5507 5506 5506 5505 5505 5505 5504 5504 5504 5504 5504 5504 5505 5505 5505 5505 5505 5505 5505 5505 5505 5505 5505
5500 5499 5498 5498 5498 5497 5498 5497 5496 5496 5496 5495 5495 5494 5493 5493 5493 5493 5493 5493 5492 5492 5491 5491 5490 5490 5490 5489 5489 5489 5489 5489 5489 5490 5490 5490 5489 5489 5489 5489 5488 5488 5488 5487
5488 5486 5485 5485 5485 5484 5484 5484 5483 5482 5482 5481 5481 5480 5480 5479 5479 5479 5479 5479 5478 5477 5477 5476 5475 5475 5475 5475 5475 5474 5474 5474 5474 5475 5475 5474 5474 5473 5473 5472 5473 5472 5472 5471